Weather History for KCUT

Nearest airport to NA, NA.

See history from more local stations
Change the Weather History Date:

Monday, April 15, 2013

  Actual Average Record
Temperature  
Mean Temperature 20 °F 39 °F  
Max Temperature 29 °F 50 °F 75 °F (1985)
Min Temperature 11 °F 28 °F 11 °F (2013)
Degree Days  
Heating Degree Days 45 26  
Month to date heating degree days 504 422  
Since 1 July heating degree days 7131 7297  
Cooling Degree Days 0 0  
Month to date cooling degree days 0 0  
Year to date cooling degree days 0 0  
Moisture  
Dew Point 12 °F    
Average Humidity 67    
Maximum Humidity 91    
Minimum Humidity 42    
Precipitation  
Precipitation T in 0.08 in 0.90 in (1927)
Month to date precipitation 1.15 0.91  
Year to date precipitation 2.82 2.78  
Sea Level Pressure  
Sea Level Pressure 29.94 in    
Wind  
Wind Speed 7 mph (South)    
Max Wind Speed 16 mph    
Max Gust Speed 23 mph    
Visibility 9 miles    
Events Snow    
T = Trace of Precipitation, MM = Missing Value Source: NWS Daily Summary

Daily Weather History Graph

Daily Weather History Graph

Search for Another Location

Airport or City:

Trip Planner

Search our weather history database for the weather conditions in past years. The results will help you decide how hot, cold, wet, or windy it might be!

Date:

Astronomy

Apr. 15, 2013 Rise Set
Actual Time 6:11 AM MDT 7:38 PM MDT
Civil Twilight 5:41 AM MDT 8:08 PM MDT
Nautical Twilight 5:05 AM MDT 8:44 PM MDT
Astronomical Twilight 4:26 AM MDT 9:23 PM MDT
Moon 9:33 AM MDT (4/15) No Moon Set
Length of Visible Light 14h 27m
Length of Day
13h 27m
Waxing Crescent, 25% of the Moon is Illuminated
Apr 15
Waxing Crescent
Apr 18
First Quarter
Apr 25
Full
May 2
Last Quarter
May 9
New

Hourly Weather History & Observations

Time (MDT) Temp. Windchill Dew Point Humidity Pressure Visibility Wind Dir Wind Speed Gust Speed Precip Events Conditions
12:53 AM 15.1 °F 7.7 °F 5.0 °F 64% 29.78 in 10.0 mi Variable 4.6 mph 16.1 mph N/A   Clear
1:53 AM 14.0 °F 6.5 °F 3.9 °F 64% 29.79 in 10.0 mi Variable 4.6 mph - N/A   Clear
2:53 AM 14.0 °F 2.0 °F 3.0 °F 62% 29.77 in 10.0 mi NW 9.2 mph 16.1 mph N/A   Clear
3:53 AM 14.0 °F 6.5 °F 3.0 °F 62% 29.82 in 10.0 mi WNW 4.6 mph - N/A   Clear
4:53 AM 12.0 °F 2.7 °F 3.0 °F 67% 29.86 in 10.0 mi West 5.8 mph - N/A   Clear
5:53 AM 10.9 °F 1.4 °F 3.0 °F 70% 29.86 in 10.0 mi NNW 5.8 mph - N/A   Clear
6:53 AM 14.0 °F 2.9 °F 3.0 °F 62% 29.88 in 10.0 mi NNW 8.1 mph - N/A   Clear
7:53 AM 19.0 °F 9.0 °F 6.1 °F 57% 29.92 in 10.0 mi North 8.1 mph - N/A   Clear
8:53 AM 19.9 °F 11.1 °F 5.0 °F 52% 29.92 in 10.0 mi NNW 6.9 mph - N/A   Clear
9:53 AM 24.1 °F 17.0 °F 6.1 °F 46% 29.92 in 10.0 mi NE 5.8 mph - N/A   Clear
10:53 AM 27.0 °F 20.5 °F 6.1 °F 41% 29.93 in 10.0 mi Variable 5.8 mph - N/A   Clear
11:53 AM 28.0 °F 20.0 °F 8.1 °F 43% 29.93 in 10.0 mi SE 8.1 mph - N/A   Mostly Cloudy
12:53 PM 28.9 °F 20.4 °F 12.0 °F 49% 29.92 in 10.0 mi SSE 9.2 mph 19.6 mph N/A   Mostly Cloudy
1:53 PM 27.0 °F 16.1 °F 12.9 °F 56% 29.95 in 10.0 mi SE 12.7 mph - N/A   Overcast
2:53 PM 25.0 °F 14.8 °F 14.0 °F 63% 29.98 in 9.0 mi SE 10.4 mph 18.4 mph 0.00 in Snow Light Snow
3:53 PM 26.1 °F 16.8 °F 14.0 °F 60% 29.98 in 10.0 mi South 9.2 mph 20.7 mph 0.00 in   Overcast
4:36 PM 26.6 °F 19.1 °F 14.0 °F 59% 29.84 in 10.0 mi Variable 6.9 mph 18.4 mph N/A   Overcast
4:53 PM 25.0 °F 14.8 °F 16.0 °F 69% 30.02 in 10.0 mi South 10.4 mph 16.1 mph N/A   Overcast
5:13 PM 24.8 °F 14.6 °F 15.8 °F 69% 29.85 in 6.0 mi South 10.4 mph 19.6 mph 0.00 in Snow Light Snow
5:53 PM 24.1 °F 16.0 °F 17.1 °F 75% 30.05 in 5.0 mi Variable 6.9 mph 21.9 mph 0.00 in Snow Light Snow
6:53 PM 21.9 °F 15.7 °F 17.1 °F 82% 30.07 in 5.0 mi Variable 4.6 mph - 0.00 in Snow Light Snow
7:01 PM 21.2 °F 11.7 °F 17.6 °F 86% 29.90 in 5.0 mi SSE 8.1 mph - 0.00 in Snow Light Snow
7:53 PM 21.0 °F 14.6 °F 17.1 °F 85% 30.08 in 8.0 mi South 4.6 mph - 0.00 in   Overcast
8:11 PM 21.2 °F 13.6 °F 17.6 °F 86% 29.93 in 9.0 mi Variable 5.8 mph - N/A   Overcast
8:18 PM 21.2 °F 14.9 °F 17.6 °F 86% 29.94 in 9.0 mi South 4.6 mph - N/A   Overcast
8:40 PM 21.2 °F 13.6 °F 17.6 °F 86% 29.95 in 8.0 mi Variable 5.8 mph - N/A   Overcast
8:53 PM 21.0 °F 13.4 °F 17.1 °F 85% 30.11 in 10.0 mi South 5.8 mph - N/A   Overcast
9:53 PM 19.9 °F 11.1 °F 17.1 °F 89% 30.13 in 10.0 mi South 6.9 mph - N/A   Overcast
10:02 PM 19.4 °F 11.5 °F 17.6 °F 93% 29.97 in 10.0 mi Variable 5.8 mph - N/A   Overcast
10:53 PM 19.9 °F 14.9 °F 17.1 °F 89% 30.11 in 10.0 mi Variable 3.5 mph - N/A   Overcast
11:53 PM 19.9 °F 13.4 °F 16.0 °F 85% 30.08 in 10.0 mi NW 4.6 mph - N/A   Mostly Cloudy